STARLINK-1602

decayed
NORAD ID: 46121 Int'l Des: 2020-057 Owner: SPXS Country: US Constellation: starlink
LEOCIRCULAR
Gruppe

Über STARLINK-1602

Beschreibung wird geladen...

Höhenverlauf

Altitude vs Time

uPlot chart will show altitude changes over time

Zweizeiliger Elementsatz

1 46121U 20057E 25007.34181969 .09781165 12333-4 84943-3 0 9997
2 46121 53.0302 22.3522 0002755 75.7806 310.1744 16.38553887243134
Epoch: 7. Jan. 2025 • Age: 6037 hours

Aktueller Status

Position data unavailable
Startdatum 18. Aug. 2020
Alter 5 years
Verglühungsdatum 7. Jan. 2025
Typ internet

Technische Details

Klassifizierung Payload
Masse 260.00 kg
Trockenmasse 248.00 kg
Gesamtmasse 260.00 kg
Länge 0.20 m
Durchmesser 2.80 m
Spannweite 9.00 m
Form Box + pan
Hersteller SPXS
Bus-Typ Starlink
Phasenstatus Reentered
Besitzer/Staat SPXS/US

Große Konstellationen

Loading constellations...